Regional Weather Roundup
Issued by NWS Charleston, SC

Current Version | Previous Version | Text Only | Print | Product List | Glossary Off
Versions: 1 2 3 4 5 6 7 8 9 10 11 12 13 14 15 16 17 18 19 20 21 22 23 24 25 26 27 28 29 30 31 32 33 34 35 36 37 38 39 40 41 42 43 44 45 46 47 48 49 50

000
ASUS42 KCHS 290426
RWRCHS

REGIONAL WEATHER ROUNDUP
NATIONAL WEATHER SERVICE CHARLESTON SC
1200 AM EDT SUN MAR 29 2015

NOTE: "FAIR" INDICATES FEW OR NO CLOUDS BELOW 12,000 FEET WITH NO
SIGNIFICANT WEATHER AND/OR OBSTRUCTIONS TO VISIBILITY.

NOT ALL STATIONS ARE QUALITY CONTROLLED BY THE NATIONAL
WEATHER SERVICE. USE DATA WITH CAUTION...ESPECIALLY
DEWPOINT OBSERVATIONS.

SCZ027-030-031-034>040-042>050-290500-
...SOUTHEAST SOUTH CAROLINA...

CITY           SKY/WX    TMP DP  RH WIND       PRES   REMARKS
N CHARLESTON   CLEAR     45  29  53 CALM      30.22R
WATERFRONT PRK   N/A     50 N/A N/A CALM        N/A
MOUNT PLEASANT LGT RAIN  39  36  87 CALM      30.22R
PINOPOLIS        N/A     54  27  35 NE8       30.13R
MONCKS CORNER  FAIR      41  32  70 CALM      30.21S
SUMMERVILLE    FAIR      37  36  93 CALM      30.23R
BEAUFORT MCAS  CLEAR     43  33  68 W5        30.22S
BEAUFORT ARPT  FAIR      43  36  75 CALM      30.22S
HILTON HEAD IS CLEAR     46  32  57 W3        30.24R
WALTERBORO     CLEAR     36  32  87 CALM      30.22S
ALLENDALE      FAIR      41  32  70 CALM      30.21S

...SOUTHERN MIDLANDS AND PEE DEE...

CITY           SKY/WX    TMP DP  RH WIND       PRES   REMARKS
GEORGETOWN     NOT AVBL
KINGSTREE      NOT AVBL
ORANGEBURG     CLEAR     40  33  76 NE6       30.22R WCI  36
BARNWELL       FAIR      41  30  65 W6        30.23R
AIKEN          FAIR      39  19  45 N8        30.28R WCI  34
MANNING        FLURRIES  36  30  80 N6        30.24R WCI  31
COLUMBIA       CLEAR     44  19  36 N6        30.24R
SUMTER         CLEAR     40  20  45 NE12      30.23R WCI  32
FLORENCE       CLEAR     40  23  50 N8        30.25R WCI  34
MYRTLE BEACH   CLEAR     41  30  65 N5        30.26R
N MYRTLE BEACH CLEAR     40  29  64 N6        30.22R WCI  36

$$

GAZ063-065-086>088-099>101-113>116-118-119-134>141-150-290500-
...SOUTHEAST GEORGIA...

CITY           SKY/WX    TMP DP  RH WIND       PRES   REMARKS
SAVANNAH ARPT  CLEAR     43  34  70 CALM      30.23S
HUNTER AAF     CLEAR     42  32  66 W3        30.21R
FORT STEWART   CLEAR     40  34  77 CALM      30.21R
STATESBORO     CLEAR     36  32  85 CALM      30.24R
SYLVANIA       CLEAR     37  32  85 CALM      30.24S
CLAXTON        FAIR      36  36 100 CALM      30.24S

...CSRA...CENTRAL AND FAR SOUTHEAST GEORGIA...

CITY           SKY/WX    TMP DP  RH WIND       PRES   REMARKS
THOMSON        CLEAR     37  31  77 CALM      30.31R
AUGUSTA-BUSH   CLEAR     45  20  36 N12       30.24R
AUGUSTA-DANIEL CLEAR     46  16  30 N9        30.25R
SWAINSBORO     FAIR      36  27  69 NW3       30.26R
VIDALIA        CLEAR     45  30  57 N5        30.25R
EASTMAN        MOCLDY    41  36  83 CALM      30.28R
HAZLEHURST     FAIR      46  34  61 NW3       30.24R
ALMA           MOCLDY    45  39  79 CALM      30.24R
WAYCROSS       CLOUDY    49  46  86 CALM      30.25R
JESUP          FAIR      45  41  87 CALM      30.24S
BAXLEY         FAIR      46  43  87 CALM      30.24R
BRUNSWICK      MOCLDY    43  37  81 CALM      30.25R
SAINT SIMONS   PTCLDY    46  36  68 CALM      30.24R

$$

SCZ027-028-034-036>038-045-046-048>050-GAZ119-141-290500-
...LAKE AND SUPPLEMENTAL COASTAL OBSERVATIONS...

STATION/POSITION TIME  TEMP    WIND        PRES    WAVE   SWELL
                       AIR SEA DIR/SP/G            HT/PER HT/PER/DIR
                 (UTC) (F)     (DEG/KT/KT) (MB)    (FT/S) (FT/S/D)
UPR LAKE MARION  NOT AVBL
WINYAH BAY       0300   43     330/  3     1022.0R
LAKE MURRAY      0400   42     360/  2/  5 1023.7R
ACE BASIN NERRS  NOT AVBL
FORT PULASKI     0300          290/  8/ 10 1023.8R
SAPELO ISLAND    0400   47     310/  3     1023.0S

$$

ANZ835-935-AMZ111-154-330-350-352-354-370-450-454-472-290500-
...C-MAN AND BUOY OBSERVATIONS...

STATION/POSITION TIME  TEMP    WIND        PRES    WAVE   SWELL
                       AIR SEA DIR/SP/G            HT/PER HT/PER/DIR
                 (UTC) (F)     (DEG/KT/KT) (MB)    (FT/S) (FT/S/D)
BUOY 41004       0350   56 68  340/ 16/ 19 1022.2R   5/ 4   2/10
BUOY 41008       0350   56 60  310/ 14/ 17 1023.2R   2/ 3   2/ 80/ 7
FOLLY BEACH CMAN 0400   48     340/  3/  4 1023.2R
CAPERS NEARSHORE NOT AVBL
FRIPP NEARSHORE  NOT AVBL


STATION/POSITION TIME  TEMP    WIND        PRES    WAVE   SWELL
                       AIR SEA DIR/SP/G            HT/PER HT/PER/DIR
                 (UTC) (F)     (DEG/KT/KT) (MB)    (FT/S) (FT/S/D)
5E ST. MARYS GA  0321      60                N/A     2/ 9
FRYING PAN BUOY  0350   51 65   10/ 17/ 21 1023.2R   4/ 5   2/160/ 8
BUOY 41025       NOT AVBL
CAPE LOOKOUT NC  0400   42     360/ 12/ 16 1023.2R
BUOY 41002       0350   59 68  310/ 21/ 25 1020.0R  10/ 8   5/ 40/12
BUOY 41010       0320   65 76  310/ 12/ 17 1022.5R
ST AUGUSTINE FL  0400   52 60  320/  8/  9 1024.9R


$$



USA.gov is the U.S. government's official web portal to all federal, state and local government web resources and services.